Home   Weather   Washington DC   Past weeks

Flag for USA Past Weather in Washington DC, USA — Yesterday and Last 2 Weeks

Now
74 °F

Passing clouds.


Feels Like: 75 °F
Forecast: 69 / 84 °F
Wind: 6 mph from North

Location: Reagan National Airport

Current Time: Sep 19, 2018 at 1:09:37 am

Latest Report: Sep 18, 2018 at 11:52 pm


Visibility: 10 mi

Pressure: 29.84 "Hg

Humidity: 76%

Dew Point: 66 °F

Location of Washington DCLocation

Past Weather in Washington DC — Graph

°F

Washington DC Temperature Yesterday

Maximum temperature yesterday: 83 °F (at 5:52 pm)
Minimum temperature yesterday: 74 °F (at 11:52 pm)
Average temperature yesterday: 78 °F

High & Low Weather Summary for the Past Weeks

 TemperatureHumidityPressure
High94 °F (Sep 4, 11:52 am)96% (Sep 11, 5:52 am)30.27 "Hg (Sep 11, 5:52 am)
Low62 °F (Sep 9, 2:52 am)46% (Sep 6, 2:52 pm)29.77 "Hg (Sep 18, 1:52 pm)
Average76 °F82%30.09 "Hg
* Reported Sep 3 11:52 pm — Sep 18 11:52 pm, Washington DC. Weather by CustomWeather, © 2018

Note: Actual official high and low records may vary slightly from our data, if they occured in-between our weather recording intervals... More about our weather records

Advertising

Washington DC Weather History for the Previous 24 Hours

Scroll right to see more
 ConditionsComfort  
Time TempWeatherWind HumidityBarometerVisibility
11:52 pm
Tue, Sep 18
74 °FPassing clouds.6 mph76%29.84 "Hg10 mi
10:52 pm77 °FPassing clouds.12 mph69%29.85 "Hg10 mi
9:52 pm77 °FPassing clouds.8 mph69%29.84 "Hg10 mi
8:52 pm78 °FPassing clouds.9 mph69%29.83 "Hg10 mi
7:52 pm81 °FPassing clouds.9 mph65%29.81 "Hg10 mi
6:52 pm81 °FBroken clouds.9 mph65%29.80 "Hg10 mi
5:52 pm83 °FPartly sunny.3 mph65%29.79 "Hg10 mi
4:52 pm81 °FBroken clouds.10 mph65%29.78 "Hg10 mi
3:52 pm81 °FBroken clouds.13 mph69%29.77 "Hg10 mi
2:52 pm78 °FBroken clouds.17 mph76%29.78 "Hg10 mi
2:28 pm80 °FThundershowers. Cloudy.14 mph76%29.77 "Hg10 mi
1:52 pm78 °FCloudy.17 mph82%29.77 "Hg10 mi
1:40 pm80 °FLight rain. Cloudy.7 mph81%29.77 "Hg10 mi
1:11 pm78 °FRain. Cloudy.9 mph84%29.77 "Hg5 mi
12:41 pm82 °FCloudy.3 mph77%29.77 "Hg10 mi
12:31 pm81 °FMostly cloudy.3 mph79%29.77 "Hg10 mi
11:52 am80 °FCloudy.6 mph85%29.78 "Hg10 mi
11:41 am79 °FMostly cloudy.8 mph84%29.78 "Hg10 mi
11:28 am80 °FMostly cloudy.7 mph81%29.78 "Hg10 mi
10:52 am78 °FOvercast.8 mph87%29.79 "Hg10 mi
9:52 am78 °FOvercast.8 mph84%29.78 "Hg10 mi
8:52 am78 °FOvercast.9 mph84%29.78 "Hg10 mi
7:52 am76 °FOvercast.10 mph91%29.79 "Hg10 mi
6:52 am76 °FMostly cloudy.7 mph91%29.79 "Hg10 mi
6:37 am76 °FMostly cloudy.7 mph91%29.80 "Hg10 mi
6:00 am75 °FMostly cloudy.6 mph90%29.80 "Hg10 mi
4:52 am75 °FOvercast.No wind90%29.80 "Hg10 mi
4:29 am75 °FMostly cloudy.3 mph90%29.80 "Hg10 mi
4:05 am75 °FLight rain. Overcast.5 mph90%29.81 "Hg8 mi
3:36 am76 °FMostly cloudy.7 mph88%29.82 "Hg10 mi
2:52 am76 °FOvercast.10 mph88%29.82 "Hg10 mi
2:10 am77 °FLight rain. Overcast.13 mph90%29.83 "Hg10 mi
1:52 am78 °FThunderstorms. Overcast.10 mph87%29.83 "Hg10 mi
1:40 am78 °FLight rain. Fog.15 mph87%29.84 "Hg5 mi
1:18 am78 °FLight rain. Overcast.8 mph87%29.83 "Hg7 mi
1:02 am77 °FMostly cloudy.6 mph90%29.84 "Hg10 mi
Weather by CustomWeather, © 2018

See weather overview